User: anonymous   Login
Location: Firdgum
(53.2488°N, 5.5615°E)
Time: 13:47:01
(UTC+00:00)
Language:

Radarsat Rocket - Orbit

View from above orbital plane
View from above orbital plane
View from above satellite
View from above satellite

Ground track
Ground track

The orbit data is extracted from the following two-line orbital elements,

1 23711U 95059B   20056.51225814 -.00000051 +00000-0 -56408-5 0  9999
2 23711 100.6238 059.6497 0367425 258.8597 257.2244 13.12717463164638
Epoch (UTC): 25 February 2020 12:17:39
Eccentricity: 0.0367425
inclination: 100.6238°
perigee height: 934 km
apogee height: 1491 km
right ascension of ascending node: 59.6497°
argument of perigee: 258.8597°
revolutions per day: 13.12717463
mean anomaly at epoch: 257.2244°
orbit number at epoch: 16463

The dashed part of the orbit path shows where the satellite is in the earth's shadow,  

DLR